User: anonymous   Login
Location: Centerville
(32.8776°N, 96.6203°W)
Time: 06:18:29
(UTC+00:00)
Language:

Cosmos 1470 - Orbit

View from above orbital plane
View from above orbital plane
View from above satellite
View from above satellite

Ground track
Ground track

The orbit data is extracted from the following two-line orbital elements,

1 14147U 83061A   21260.42032366  .00001136  00000-0  64666-4 0  9995
2 14147  82.4833 312.3733 0014153 322.2394  37.7842 15.11794486839117
Epoch (UTC): 17 September 2021 10:05:15
Eccentricity: 0.0014153
inclination: 82.4833°
perigee height: 521 km
apogee height: 540 km
right ascension of ascending node: 312.3733°
argument of perigee: 322.2394°
revolutions per day: 15.11794486
mean anomaly at epoch: 37.7842°
orbit number at epoch: 83911

The dashed part of the orbit path shows where the satellite is in the earth's shadow,  

DLR